owner,sensor,date,latitude,longitude,vertical_datum,sea_water_temperature,qcFlag 
TCOON,ioos:station:TCOON:005:1,2010-03-01T14:00:00Z,27.6346,-97.2370,0.0,16.6,11111222 
TCOON,ioos:station:TCOON:005:1,2010-03-01T15:00:00Z,27.6346,-97.2370,0.0,16.4,11111222 
TCOON,ioos:station:TCOON:005:1,2010-03-01T16:00:00Z,27.6346,-97.2370,0.0,16.4,11111222 
TCOON,ioos:station:TCOON:005:1,2010-03-01T17:00:00Z,27.6346,-97.2370,0.0,16.5,11111222 
TCOON,ioos:station:TCOON:005:1,2010-03-01T18:00:00Z,27.6346,-97.2370,0.0,17.2,11111222 
TCOON,ioos:station:TCOON:005:1,2010-03-01T19:00:00Z,27.6346,-97.2370,0.0,18.3,11111222 
TCOON,ioos:station:TCOON:005:1,2010-03-01T20:00:00Z,27.6346,-97.2370,0.0,19.3,11111222 
TCOON,ioos:station:TCOON:005:1,2010-03-01T21:00:00Z,27.6346,-97.2370,0.0,19.5,11111222 
TCOON,ioos:station:TCOON:005:1,2010-03-01T22:00:00Z,27.6346,-97.2370,0.0,19.5,11111222 
TCOON,ioos:station:TCOON:005:1,2010-03-01T23:00:00Z,27.6346,-97.2370,0.0,19.7,11111222 
TCOON,ioos:station:TCOON:005:1,2010-03-02T00:00:00Z,27.6346,-97.2370,0.0,19.8,11111222 
TCOON,ioos:station:TCOON:005:1,2010-03-02T01:00:00Z,27.6346,-97.2370,0.0,19.5,11111222 
TCOON,ioos:station:TCOON:005:1,2010-03-02T02:00:00Z,27.6346,-97.2370,0.0,18.1,11111222 
TCOON,ioos:station:TCOON:005:1,2010-03-02T03:00:00Z,27.6346,-97.2370,0.0,17.4,11111222 
TCOON,ioos:station:TCOON:005:1,2010-03-02T04:00:00Z,27.6346,-97.2370,0.0,16.6,11111222 
TCOON,ioos:station:TCOON:005:1,2010-03-02T05:00:00Z,27.6346,-97.2370,0.0,16.5,11111222 
TCOON,ioos:station:TCOON:005:1,2010-03-02T06:00:00Z,27.6346,-97.2370,0.0,16.4,11111222 
TCOON,ioos:station:TCOON:005:1,2010-03-02T07:00:00Z,27.6346,-97.2370,0.0,15.9,11111222 
TCOON,ioos:station:TCOON:005:1,2010-03-02T08:00:00Z,27.6346,-97.2370,0.0,15.5,11111222 
TCOON,ioos:station:TCOON:005:1,2010-03-02T09:00:00Z,27.6346,-97.2370,0.0,14.3,11111222 
TCOON,ioos:station:TCOON:005:1,2010-03-02T10:00:00Z,27.6346,-97.2370,0.0,14.0,11111222 
TCOON,ioos:station:TCOON:005:1,2010-03-02T12:00:00Z,27.6346,-97.2370,0.0,13.6,11111222 
TCOON,ioos:station:TCOON:005:1,2010-03-02T14:00:00Z,27.6346,-97.2370,0.0,13.2,11111222 
TCOON,ioos:station:TCOON:005:1,2010-03-02T15:00:00Z,27.6346,-97.2370,0.0,13.0,11111222 
TCOON,ioos:station:TCOON:005:1,2010-03-02T16:00:00Z,27.6346,-97.2370,0.0,12.8,11111222 
TCOON,ioos:station:TCOON:005:1,2010-03-02T17:00:00Z,27.6346,-97.2370,0.0,12.7,11111222 
TCOON,ioos:station:TCOON:005:1,2010-03-02T18:00:00Z,27.6346,-97.2370,0.0,13.5,11111222 
TCOON,ioos:station:TCOON:005:1,2010-03-02T19:00:00Z,27.6346,-97.2370,0.0,14.8,11111222 
TCOON,ioos:station:TCOON:005:1,2010-03-02T20:00:00Z,27.6346,-97.2370,0.0,15.2,11111222 
TCOON,ioos:station:TCOON:005:1,2010-03-02T21:00:00Z,27.6346,-97.2370,0.0,15.7,11111222 
TCOON,ioos:station:TCOON:005:1,2010-03-02T22:00:00Z,27.6346,-97.2370,0.0,16.3,11111222 
TCOON,ioos:station:TCOON:005:1,2010-03-02T23:00:00Z,27.6346,-97.2370,0.0,16.5,11111222 
TCOON,ioos:station:TCOON:005:1,2010-03-03T00:00:00Z,27.6346,-97.2370,0.0,16.7,11111222 
TCOON,ioos:station:TCOON:005:1,2010-03-03T01:00:00Z,27.6346,-97.2370,0.0,16.8,11111222 
TCOON,ioos:station:TCOON:005:1,2010-03-03T02:00:00Z,27.6346,-97.2370,0.0,15.9,11111222 
TCOON,ioos:station:TCOON:005:1,2010-03-03T03:00:00Z,27.6346,-97.2370,0.0,15.9,11111222 
TCOON,ioos:station:TCOON:005:1,2010-03-03T04:00:00Z,27.6346,-97.2370,0.0,15.6,11111222 
TCOON,ioos:station:TCOON:005:1,2010-03-03T05:00:00Z,27.6346,-97.2370,0.0,15.5,11111222 
TCOON,ioos:station:TCOON:005:1,2010-03-03T06:00:00Z,27.6346,-97.2370,0.0,15.4,11111222 
TCOON,ioos:station:TCOON:005:1,2010-03-03T07:00:00Z,27.6346,-97.2370,0.0,15.2,11111222 
TCOON,ioos:station:TCOON:005:1,2010-03-03T08:00:00Z,27.6346,-97.2370,0.0,15.2,11111222 
TCOON,ioos:station:TCOON:005:1,2010-03-03T09:00:00Z,27.6346,-97.2370,0.0,15.1,11111222 
TCOON,ioos:station:TCOON:005:1,2010-03-03T10:00:00Z,27.6346,-97.2370,0.0,15.1,11111222 
TCOON,ioos:station:TCOON:005:1,2010-03-03T11:00:00Z,27.6346,-97.2370,0.0,15.1,11111222 
TCOON,ioos:station:TCOON:005:1,2010-03-03T12:00:00Z,27.6346,-97.2370,0.0,15.1,11111222 
TCOON,ioos:station:TCOON:005:1,2010-03-03T13:00:00Z,27.6346,-97.2370,0.0,15.1,11111222 
TCOON,ioos:station:TCOON:005:1,2010-03-03T14:00:00Z,27.6346,-97.2370,0.0,15.1,11111222 
TCOON,ioos:station:TCOON:005:1,2010-03-03T15:00:00Z,27.6346,-97.2370,0.0,15.1,11111222 
TCOON,ioos:station:TCOON:005:1,2010-03-03T16:00:00Z,27.6346,-97.2370,0.0,15.1,11111222 
TCOON,ioos:station:TCOON:005:1,2010-03-03T18:00:00Z,27.6346,-97.2370,0.0,15.3,11111222 
TCOON,ioos:station:TCOON:005:1,2010-03-03T19:00:00Z,27.6346,-97.2370,0.0,15.5,11111222 
TCOON,ioos:station:TCOON:005:1,2010-03-03T20:00:00Z,27.6346,-97.2370,0.0,15.8,11111222 
TCOON,ioos:station:TCOON:005:1,2010-03-03T21:00:00Z,27.6346,-97.2370,0.0,16.1,11111222 
TCOON,ioos:station:TCOON:005:1,2010-03-03T22:00:00Z,27.6346,-97.2370,0.0,16.4,11111222 
TCOON,ioos:station:TCOON:005:1,2010-03-03T23:00:00Z,27.6346,-97.2370,0.0,17.3,11111222 
TCOON,ioos:station:TCOON:005:1,2010-03-04T00:00:00Z,27.6346,-97.2370,0.0,17.6,11111222 
TCOON,ioos:station:TCOON:005:1,2010-03-04T01:00:00Z,27.6346,-97.2370,0.0,17.3,11111222 
TCOON,ioos:station:TCOON:005:1,2010-03-04T02:00:00Z,27.6346,-97.2370,0.0,17.3,11111222 
TCOON,ioos:station:TCOON:005:1,2010-03-04T03:00:00Z,27.6346,-97.2370,0.0,17.3,11111222 
TCOON,ioos:station:TCOON:005:1,2010-03-04T04:00:00Z,27.6346,-97.2370,0.0,17.3,11111222 
TCOON,ioos:station:TCOON:005:1,2010-03-04T05:00:00Z,27.6346,-97.2370,0.0,17.3,11111222 
TCOON,ioos:station:TCOON:005:1,2010-03-04T06:00:00Z,27.6346,-97.2370,0.0,17.2,11111222 
TCOON,ioos:station:TCOON:005:1,2010-03-04T07:00:00Z,27.6346,-97.2370,0.0,17.2,11111222 
TCOON,ioos:station:TCOON:005:1,2010-03-04T08:00:00Z,27.6346,-97.2370,0.0,17.2,11111222 
TCOON,ioos:station:TCOON:005:1,2010-03-04T09:00:00Z,27.6346,-97.2370,0.0,17.2,11111222 
TCOON,ioos:station:TCOON:005:1,2010-03-04T11:00:00Z,27.6346,-97.2370,0.0,17.2,11111222 
TCOON,ioos:station:TCOON:005:1,2010-03-04T12:00:00Z,27.6346,-97.2370,0.0,17.2,11111222 
TCOON,ioos:station:TCOON:005:1,2010-03-04T13:00:00Z,27.6346,-97.2370,0.0,17.2,11111222 
TCOON,ioos:station:TCOON:005:1,2010-03-04T14:00:00Z,27.6346,-97.2370,0.0,17.0,11111222 
TCOON,ioos:station:TCOON:005:1,2010-03-04T15:00:00Z,27.6346,-97.2370,0.0,16.6,11111222 
TCOON,ioos:station:TCOON:005:1,2010-03-11T21:00:00Z,27.6346,-97.2370,0.0,23.2,11111222 
TCOON,ioos:station:TCOON:005:1,2010-03-11T22:00:00Z,27.6346,-97.2370,0.0,23.7,11111222 
TCOON,ioos:station:TCOON:005:1,2010-03-11T23:00:00Z,27.6346,-97.2370,0.0,23.8,11111222 
TCOON,ioos:station:TCOON:005:1,2010-03-12T00:00:00Z,27.6346,-97.2370,0.0,23.7,11111222 
TCOON,ioos:station:TCOON:005:1,2010-03-12T01:00:00Z,27.6346,-97.2370,0.0,23.5,11111222 
TCOON,ioos:station:TCOON:005:1,2010-03-12T02:00:00Z,27.6346,-97.2370,0.0,23.1,11111222 
TCOON,ioos:station:TCOON:005:1,2010-03-12T03:00:00Z,27.6346,-97.2370,0.0,22.9,11111222 
TCOON,ioos:station:TCOON:005:1,2010-03-12T05:00:00Z,27.6346,-97.2370,0.0,22.0,11111222 
TCOON,ioos:station:TCOON:005:1,2010-03-12T06:00:00Z,27.6346,-97.2370,0.0,21.6,11111222 
TCOON,ioos:station:TCOON:005:1,2010-03-12T07:00:00Z,27.6346,-97.2370,0.0,21.6,11111222 
TCOON,ioos:station:TCOON:005:1,2010-03-12T09:00:00Z,27.6346,-97.2370,0.0,21.4,11111222 
TCOON,ioos:station:TCOON:005:1,2010-03-12T10:00:00Z,27.6346,-97.2370,0.0,20.9,11111222 
TCOON,ioos:station:TCOON:005:1,2010-03-12T11:00:00Z,27.6346,-97.2370,0.0,20.3,11111222 
TCOON,ioos:station:TCOON:005:1,2010-03-12T12:00:00Z,27.6346,-97.2370,0.0,19.6,11111222 
TCOON,ioos:station:TCOON:005:1,2010-03-12T13:00:00Z,27.6346,-97.2370,0.0,19.2,11111222 
TCOON,ioos:station:TCOON:005:1,2010-03-12T14:00:00Z,27.6346,-97.2370,0.0,18.9,11111222 
TCOON,ioos:station:TCOON:005:1,2010-03-12T15:00:00Z,27.6346,-97.2370,0.0,18.5,11111222 
TCOON,ioos:station:TCOON:005:1,2010-03-12T16:00:00Z,27.6346,-97.2370,0.0,18.4,11111222 
TCOON,ioos:station:TCOON:005:1,2010-03-12T17:00:00Z,27.6346,-97.2370,0.0,18.3,11111222 
TCOON,ioos:station:TCOON:005:1,2010-03-12T18:00:00Z,27.6346,-97.2370,0.0,18.7,11111222 
TCOON,ioos:station:TCOON:005:1,2010-03-12T19:00:00Z,27.6346,-97.2370,0.0,19.1,11111222 
TCOON,ioos:station:TCOON:005:1,2010-03-12T20:00:00Z,27.6346,-97.2370,0.0,20.1,11111222 
TCOON,ioos:station:TCOON:005:1,2010-03-12T21:00:00Z,27.6346,-97.2370,0.0,20.3,11111222 
TCOON,ioos:station:TCOON:005:1,2010-03-12T22:00:00Z,27.6346,-97.2370,0.0,20.7,11111222 
TCOON,ioos:station:TCOON:005:1,2010-03-12T23:00:00Z,27.6346,-97.2370,0.0,20.9,11111222 
TCOON,ioos:station:TCOON:005:1,2010-03-13T00:00:00Z,27.6346,-97.2370,0.0,21.2,11111222 
TCOON,ioos:station:TCOON:005:1,2010-03-13T01:00:00Z,27.6346,-97.2370,0.0,21.3,11111222 
TCOON,ioos:station:TCOON:005:1,2010-03-13T02:00:00Z,27.6346,-97.2370,0.0,21.4,11111222 
TCOON,ioos:station:TCOON:005:1,2010-03-13T03:00:00Z,27.6346,-97.2370,0.0,21.1,11111222 
TCOON,ioos:station:TCOON:005:1,2010-03-13T04:00:00Z,27.6346,-97.2370,0.0,20.8,11111222 
TCOON,ioos:station:TCOON:005:1,2010-03-13T05:00:00Z,27.6346,-97.2370,0.0,20.6,11111222 
TCOON,ioos:station:TCOON:005:1,2010-03-13T06:00:00Z,27.6346,-97.2370,0.0,20.4,11111222 
TCOON,ioos:station:TCOON:005:1,2010-03-13T07:00:00Z,27.6346,-97.2370,0.0,20.3,11111222 
TCOON,ioos:station:TCOON:005:1,2010-03-13T09:00:00Z,27.6346,-97.2370,0.0,20.1,11111222 
TCOON,ioos:station:TCOON:005:1,2010-03-13T10:00:00Z,27.6346,-97.2370,0.0,20.0,11111222 
TCOON,ioos:station:TCOON:005:1,2010-03-13T11:00:00Z,27.6346,-97.2370,0.0,19.9,11111222 
TCOON,ioos:station:TCOON:005:1,2010-03-13T12:00:00Z,27.6346,-97.2370,0.0,19.8,11111222 
TCOON,ioos:station:TCOON:005:1,2010-03-13T13:00:00Z,27.6346,-97.2370,0.0,19.7,11111222 
TCOON,ioos:station:TCOON:005:1,2010-03-13T14:00:00Z,27.6346,-97.2370,0.0,19.5,11111222 
TCOON,ioos:station:TCOON:005:1,2010-03-13T15:00:00Z,27.6346,-97.2370,0.0,19.4,11111222 
TCOON,ioos:station:TCOON:005:1,2010-03-13T17:00:00Z,27.6346,-97.2370,0.0,19.3,11111222 
TCOON,ioos:station:TCOON:005:1,2010-03-13T18:00:00Z,27.6346,-97.2370,0.0,19.6,11111222 
TCOON,ioos:station:TCOON:005:1,2010-03-13T19:00:00Z,27.6346,-97.2370,0.0,19.8,11111222 
TCOON,ioos:station:TCOON:005:1,2010-03-13T20:00:00Z,27.6346,-97.2370,0.0,20.0,11111222 
TCOON,ioos:station:TCOON:005:1,2010-03-13T21:00:00Z,27.6346,-97.2370,0.0,20.9,11111222 
TCOON,ioos:station:TCOON:005:1,2010-03-13T22:00:00Z,27.6346,-97.2370,0.0,21.7,11111222 
TCOON,ioos:station:TCOON:005:1,2010-03-13T23:00:00Z,27.6346,-97.2370,0.0,22.0,11111222 
TCOON,ioos:station:TCOON:005:1,2010-03-14T00:00:00Z,27.6346,-97.2370,0.0,22.0,11111222 
TCOON,ioos:station:TCOON:005:1,2010-03-14T01:00:00Z,27.6346,-97.2370,0.0,21.6,11111222 
TCOON,ioos:station:TCOON:005:1,2010-03-14T02:00:00Z,27.6346,-97.2370,0.0,21.5,11111222 
TCOON,ioos:station:TCOON:005:1,2010-03-14T03:00:00Z,27.6346,-97.2370,0.0,21.3,11111222 
TCOON,ioos:station:TCOON:005:1,2010-03-14T06:00:00Z,27.6346,-97.2370,0.0,20.9,11111222 
TCOON,ioos:station:TCOON:005:1,2010-03-14T07:00:00Z,27.6346,-97.2370,0.0,20.7,11111222 
TCOON,ioos:station:TCOON:005:1,2010-03-14T08:00:00Z,27.6346,-97.2370,0.0,20.7,11111222 
TCOON,ioos:station:TCOON:005:1,2010-03-14T09:00:00Z,27.6346,-97.2370,0.0,20.7,11111222 
TCOON,ioos:station:TCOON:005:1,2010-03-14T10:00:00Z,27.6346,-97.2370,0.0,20.6,11111222 
TCOON,ioos:station:TCOON:005:1,2010-03-14T11:00:00Z,27.6346,-97.2370,0.0,20.5,11111222 
TCOON,ioos:station:TCOON:005:1,2010-03-14T12:00:00Z,27.6346,-97.2370,0.0,20.5,11111222 
TCOON,ioos:station:TCOON:005:1,2010-03-14T13:00:00Z,27.6346,-97.2370,0.0,20.5,11111222 
TCOON,ioos:station:TCOON:005:1,2010-03-14T14:00:00Z,27.6346,-97.2370,0.0,20.5,11111222 
TCOON,ioos:station:TCOON:005:1,2010-03-14T15:00:00Z,27.6346,-97.2370,0.0,20.5,11111222 
TCOON,ioos:station:TCOON:005:1,2010-03-14T16:00:00Z,27.6346,-97.2370,0.0,20.5,11111222 
TCOON,ioos:station:TCOON:005:1,2010-03-14T17:00:00Z,27.6346,-97.2370,0.0,20.6,11111222 
TCOON,ioos:station:TCOON:005:1,2010-03-14T18:00:00Z,27.6346,-97.2370,0.0,20.7,11111222 
TCOON,ioos:station:TCOON:005:1,2010-03-14T19:00:00Z,27.6346,-97.2370,0.0,20.8,11111222 
TCOON,ioos:station:TCOON:005:1,2010-03-14T20:00:00Z,27.6346,-97.2370,0.0,21.1,11111222 
TCOON,ioos:station:TCOON:005:1,2010-03-14T21:00:00Z,27.6346,-97.2370,0.0,21.3,11111222 
TCOON,ioos:station:TCOON:005:1,2010-03-14T22:00:00Z,27.6346,-97.2370,0.0,21.9,11111222 
TCOON,ioos:station:TCOON:005:1,2010-03-14T23:00:00Z,27.6346,-97.2370,0.0,22.0,11111222 
TCOON,ioos:station:TCOON:005:1,2010-03-15T00:00:00Z,27.6346,-97.2370,0.0,22.0,11111222 
TCOON,ioos:station:TCOON:005:1,2010-03-15T01:00:00Z,27.6346,-97.2370,0.0,22.0,11111222 
TCOON,ioos:station:TCOON:005:1,2010-03-15T02:00:00Z,27.6346,-97.2370,0.0,22.0,11111222 
TCOON,ioos:station:TCOON:005:1,2010-03-15T03:00:00Z,27.6346,-97.2370,0.0,22.0,11111222 
TCOON,ioos:station:TCOON:005:1,2010-03-15T04:00:00Z,27.6346,-97.2370,0.0,22.0,11111222 
TCOON,ioos:station:TCOON:005:1,2010-03-15T05:00:00Z,27.6346,-97.2370,0.0,21.7,11111222 
TCOON,ioos:station:TCOON:005:1,2010-03-15T06:00:00Z,27.6346,-97.2370,0.0,21.6,11111222 
TCOON,ioos:station:TCOON:005:1,2010-03-15T07:00:00Z,27.6346,-97.2370,0.0,21.5,11111222 
TCOON,ioos:station:TCOON:005:1,2010-03-15T08:00:00Z,27.6346,-97.2370,0.0,21.4,11111222 
TCOON,ioos:station:TCOON:005:1,2010-03-15T09:00:00Z,27.6346,-97.2370,0.0,21.4,11111222 
TCOON,ioos:station:TCOON:005:1,2010-03-15T10:00:00Z,27.6346,-97.2370,0.0,21.2,11111222 
TCOON,ioos:station:TCOON:005:1,2010-03-15T11:00:00Z,27.6346,-97.2370,0.0,21.0,11111222 
TCOON,ioos:station:TCOON:005:1,2010-03-15T12:00:00Z,27.6346,-97.2370,0.0,20.8,11111222 
TCOON,ioos:station:TCOON:005:1,2010-03-15T13:00:00Z,27.6346,-97.2370,0.0,20.7,11111222 
TCOON,ioos:station:TCOON:005:1,2010-03-15T14:00:00Z,27.6346,-97.2370,0.0,20.6,11111222 
TCOON,ioos:station:TCOON:005:1,2010-03-15T15:00:00Z,27.6346,-97.2370,0.0,20.8,11111222 
TCOON,ioos:station:TCOON:005:1,2010-03-15T16:00:00Z,27.6346,-97.2370,0.0,20.9,11111222 
TCOON,ioos:station:TCOON:005:1,2010-03-15T17:00:00Z,27.6346,-97.2370,0.0,21.3,11111222 
TCOON,ioos:station:TCOON:005:1,2010-03-15T18:00:00Z,27.6346,-97.2370,0.0,21.5,11111222 
TCOON,ioos:station:TCOON:005:1,2010-03-15T19:00:00Z,27.6346,-97.2370,0.0,21.8,11111222 
TCOON,ioos:station:TCOON:005:1,2010-03-15T20:00:00Z,27.6346,-97.2370,0.0,23.3,11111222 
TCOON,ioos:station:TCOON:005:1,2010-03-15T21:00:00Z,27.6346,-97.2370,0.0,24.4,11111222 
TCOON,ioos:station:TCOON:005:1,2010-03-15T22:00:00Z,27.6346,-97.2370,0.0,24.4,11111222 
TCOON,ioos:station:TCOON:005:1,2010-03-15T23:00:00Z,27.6346,-97.2370,0.0,24.2,11111222 
TCOON,ioos:station:TCOON:005:1,2010-03-16T00:00:00Z,27.6346,-97.2370,0.0,23.8,11111222 
TCOON,ioos:station:TCOON:005:1,2010-03-16T01:00:00Z,27.6346,-97.2370,0.0,23.7,11111222 
TCOON,ioos:station:TCOON:005:1,2010-03-16T02:00:00Z,27.6346,-97.2370,0.0,23.3,11111222 
TCOON,ioos:station:TCOON:005:1,2010-03-16T03:00:00Z,27.6346,-97.2370,0.0,22.4,11111222 
TCOON,ioos:station:TCOON:005:1,2010-03-16T04:00:00Z,27.6346,-97.2370,0.0,21.9,11111222 
TCOON,ioos:station:TCOON:005:1,2010-03-16T05:00:00Z,27.6346,-97.2370,0.0,21.5,11111222 
TCOON,ioos:station:TCOON:005:1,2010-03-16T06:00:00Z,27.6346,-97.2370,0.0,21.3,11111222 
TCOON,ioos:station:TCOON:005:1,2010-03-16T07:00:00Z,27.6346,-97.2370,0.0,21.2,11111222 
TCOON,ioos:station:TCOON:005:1,2010-03-16T08:00:00Z,27.6346,-97.2370,0.0,21.1,11111222 
TCOON,ioos:station:TCOON:005:1,2010-03-16T09:00:00Z,27.6346,-97.2370,0.0,21.0,11111222 
TCOON,ioos:station:TCOON:005:1,2010-03-16T10:00:00Z,27.6346,-97.2370,0.0,20.9,11111222 
TCOON,ioos:station:TCOON:005:1,2010-03-16T11:00:00Z,27.6346,-97.2370,0.0,20.9,11111222 
TCOON,ioos:station:TCOON:005:1,2010-03-16T12:00:00Z,27.6346,-97.2370,0.0,20.9,11111222 
TCOON,ioos:station:TCOON:005:1,2010-03-16T13:00:00Z,27.6346,-97.2370,0.0,20.6,11111222 
TCOON,ioos:station:TCOON:005:1,2010-03-16T14:00:00Z,27.6346,-97.2370,0.0,20.4,11111222 
TCOON,ioos:station:TCOON:005:1,2010-03-16T15:00:00Z,27.6346,-97.2370,0.0,20.2,11111222 
TCOON,ioos:station:TCOON:005:1,2010-03-16T16:00:00Z,27.6346,-97.2370,0.0,19.9,11111222 
TCOON,ioos:station:TCOON:005:1,2010-03-16T17:00:00Z,27.6346,-97.2370,0.0,19.8,11111222 
TCOON,ioos:station:TCOON:005:1,2010-03-16T18:00:00Z,27.6346,-97.2370,0.0,19.5,11111222 
TCOON,ioos:station:TCOON:005:1,2010-03-16T19:00:00Z,27.6346,-97.2370,0.0,19.5,11111222 
TCOON,ioos:station:TCOON:005:1,2010-03-16T20:00:00Z,27.6346,-97.2370,0.0,19.5,11111222 
TCOON,ioos:station:TCOON:005:1,2010-03-16T21:00:00Z,27.6346,-97.2370,0.0,19.5,11111222 
TCOON,ioos:station:TCOON:005:1,2010-03-16T22:00:00Z,27.6346,-97.2370,0.0,19.2,11111222 
TCOON,ioos:station:TCOON:005:1,2010-03-16T23:00:00Z,27.6346,-97.2370,0.0,19.2,11111222 
TCOON,ioos:station:TCOON:005:1,2010-03-17T00:00:00Z,27.6346,-97.2370,0.0,19.3,11111222 
TCOON,ioos:station:TCOON:005:1,2010-03-17T01:00:00Z,27.6346,-97.2370,0.0,19.4,11111222 
TCOON,ioos:station:TCOON:005:1,2010-03-17T02:00:00Z,27.6346,-97.2370,0.0,19.5,11111222 
TCOON,ioos:station:TCOON:005:1,2010-03-17T03:00:00Z,27.6346,-97.2370,0.0,19.5,11111222 
TCOON,ioos:station:TCOON:005:1,2010-03-17T05:00:00Z,27.6346,-97.2370,0.0,19.4,11111222 
TCOON,ioos:station:TCOON:005:1,2010-03-17T06:00:00Z,27.6346,-97.2370,0.0,19.4,11111222 
TCOON,ioos:station:TCOON:005:1,2010-03-17T07:00:00Z,27.6346,-97.2370,0.0,19.4,11111222 
TCOON,ioos:station:TCOON:005:1,2010-03-17T08:00:00Z,27.6346,-97.2370,0.0,19.3,11111222 
TCOON,ioos:station:TCOON:005:1,2010-03-17T09:00:00Z,27.6346,-97.2370,0.0,19.2,11111222 
TCOON,ioos:station:TCOON:005:1,2010-03-17T10:00:00Z,27.6346,-97.2370,0.0,19.1,11111222 
TCOON,ioos:station:TCOON:005:1,2010-03-17T11:00:00Z,27.6346,-97.2370,0.0,18.8,11111222 
TCOON,ioos:station:TCOON:005:1,2010-03-17T12:00:00Z,27.6346,-97.2370,0.0,18.6,11111222 
TCOON,ioos:station:TCOON:005:1,2010-03-17T13:00:00Z,27.6346,-97.2370,0.0,18.3,11111222 
TCOON,ioos:station:TCOON:005:1,2010-03-17T14:00:00Z,27.6346,-97.2370,0.0,18.2,11111222 
TCOON,ioos:station:TCOON:005:1,2010-03-17T15:00:00Z,27.6346,-97.2370,0.0,18.1,11111222 
TCOON,ioos:station:TCOON:005:1,2010-03-17T16:00:00Z,27.6346,-97.2370,0.0,18.0,11111222 
TCOON,ioos:station:TCOON:005:1,2010-03-17T17:00:00Z,27.6346,-97.2370,0.0,18.4,11111222 
TCOON,ioos:station:TCOON:005:1,2010-03-17T18:00:00Z,27.6346,-97.2370,0.0,18.6,11111222 
TCOON,ioos:station:TCOON:005:1,2010-03-17T19:00:00Z,27.6346,-97.2370,0.0,18.9,11111222 
TCOON,ioos:station:TCOON:005:1,2010-03-17T21:00:00Z,27.6346,-97.2370,0.0,20.2,11111222 
TCOON,ioos:station:TCOON:005:1,2010-03-17T22:00:00Z,27.6346,-97.2370,0.0,20.5,11111222 
TCOON,ioos:station:TCOON:005:1,2010-03-17T23:00:00Z,27.6346,-97.2370,0.0,20.4,11111222 
TCOON,ioos:station:TCOON:005:1,2010-03-18T00:00:00Z,27.6346,-97.2370,0.0,20.2,11111222 
TCOON,ioos:station:TCOON:005:1,2010-03-18T01:00:00Z,27.6346,-97.2370,0.0,20.2,11111222 
TCOON,ioos:station:TCOON:005:1,2010-03-18T02:00:00Z,27.6346,-97.2370,0.0,20.2,11111222 
TCOON,ioos:station:TCOON:005:1,2010-03-18T03:00:00Z,27.6346,-97.2370,0.0,20.3,11111222 
TCOON,ioos:station:TCOON:005:1,2010-03-18T04:00:00Z,27.6346,-97.2370,0.0,20.3,11111222 
TCOON,ioos:station:TCOON:005:1,2010-03-18T05:00:00Z,27.6346,-97.2370,0.0,20.3,11111222 
TCOON,ioos:station:TCOON:005:1,2010-03-18T06:00:00Z,27.6346,-97.2370,0.0,20.2,11111222 
TCOON,ioos:station:TCOON:005:1,2010-03-18T07:00:00Z,27.6346,-97.2370,0.0,20.2,11111222 
TCOON,ioos:station:TCOON:005:1,2010-03-18T08:00:00Z,27.6346,-97.2370,0.0,20.1,11111222 
TCOON,ioos:station:TCOON:005:1,2010-03-18T09:00:00Z,27.6346,-97.2370,0.0,20.0,11111222 
TCOON,ioos:station:TCOON:005:1,2010-03-18T10:00:00Z,27.6346,-97.2370,0.0,19.9,11111222 
TCOON,ioos:station:TCOON:005:1,2010-03-18T11:00:00Z,27.6346,-97.2370,0.0,19.8,11111222 
TCOON,ioos:station:TCOON:005:1,2010-03-18T12:00:00Z,27.6346,-97.2370,0.0,19.8,11111222 
TCOON,ioos:station:TCOON:005:1,2010-03-18T14:00:00Z,27.6346,-97.2370,0.0,19.8,11111222 
TCOON,ioos:station:TCOON:005:1,2010-03-18T15:00:00Z,27.6346,-97.2370,0.0,19.9,11111222 
TCOON,ioos:station:TCOON:005:1,2010-03-18T16:00:00Z,27.6346,-97.2370,0.0,20.1,11111222 
TCOON,ioos:station:TCOON:005:1,2010-03-18T17:00:00Z,27.6346,-97.2370,0.0,20.0,11111222 
TCOON,ioos:station:TCOON:005:1,2010-03-18T18:00:00Z,27.6346,-97.2370,0.0,20.0,11111222 
TCOON,ioos:station:TCOON:005:1,2010-03-18T20:00:00Z,27.6346,-97.2370,0.0,21.6,11111222 
TCOON,ioos:station:TCOON:005:1,2010-03-18T21:00:00Z,27.6346,-97.2370,0.0,24.4,11111222 
TCOON,ioos:station:TCOON:005:1,2010-03-18T22:00:00Z,27.6346,-97.2370,0.0,24.8,11111222 
TCOON,ioos:station:TCOON:005:1,2010-03-18T23:00:00Z,27.6346,-97.2370,0.0,24.9,11111222 
TCOON,ioos:station:TCOON:005:1,2010-03-19T00:00:00Z,27.6346,-97.2370,0.0,24.1,11111222 
TCOON,ioos:station:TCOON:005:1,2010-03-19T01:00:00Z,27.6346,-97.2370,0.0,23.1,11111222 
TCOON,ioos:station:TCOON:005:1,2010-03-19T02:00:00Z,27.6346,-97.2370,0.0,22.7,11111222 
TCOON,ioos:station:TCOON:005:1,2010-03-19T03:00:00Z,27.6346,-97.2370,0.0,22.6,11111222 
TCOON,ioos:station:TCOON:005:1,2010-03-19T04:00:00Z,27.6346,-97.2370,0.0,22.3,11111222 
TCOON,ioos:station:TCOON:005:1,2010-03-19T05:00:00Z,27.6346,-97.2370,0.0,22.1,11111222 
TCOON,ioos:station:TCOON:005:1,2010-03-19T06:00:00Z,27.6346,-97.2370,0.0,21.8,11111222 
TCOON,ioos:station:TCOON:005:1,2010-03-19T07:00:00Z,27.6346,-97.2370,0.0,21.6,11111222 
TCOON,ioos:station:TCOON:005:1,2010-03-19T08:00:00Z,27.6346,-97.2370,0.0,21.4,11111222 
TCOON,ioos:station:TCOON:005:1,2010-03-19T09:00:00Z,27.6346,-97.2370,0.0,21.1,11111222 
TCOON,ioos:station:TCOON:005:1,2010-03-19T10:00:00Z,27.6346,-97.2370,0.0,20.9,11111222 
TCOON,ioos:station:TCOON:005:1,2010-03-19T11:00:00Z,27.6346,-97.2370,0.0,20.8,11111222 
TCOON,ioos:station:TCOON:005:1,2010-03-19T12:00:00Z,27.6346,-97.2370,0.0,20.7,11111222 
TCOON,ioos:station:TCOON:005:1,2010-03-19T13:00:00Z,27.6346,-97.2370,0.0,20.4,11111222 
TCOON,ioos:station:TCOON:005:1,2010-03-19T14:00:00Z,27.6346,-97.2370,0.0,20.0,11111222 
TCOON,ioos:station:TCOON:005:1,2010-03-19T15:00:00Z,27.6346,-97.2370,0.0,19.9,11111222 
TCOON,ioos:station:TCOON:005:1,2010-03-19T16:00:00Z,27.6346,-97.2370,0.0,20.7,11111222 
TCOON,ioos:station:TCOON:005:1,2010-03-19T17:00:00Z,27.6346,-97.2370,0.0,21.5,11111222 
TCOON,ioos:station:TCOON:005:1,2010-03-19T18:00:00Z,27.6346,-97.2370,0.0,21.2,11111222 
TCOON,ioos:station:TCOON:005:1,2010-03-19T19:00:00Z,27.6346,-97.2370,0.0,21.1,11111222 
TCOON,ioos:station:TCOON:005:1,2010-03-19T20:00:00Z,27.6346,-97.2370,0.0,21.2,11111222 
TCOON,ioos:station:TCOON:005:1,2010-03-19T21:00:00Z,27.6346,-97.2370,0.0,22.2,11111222 
TCOON,ioos:station:TCOON:005:1,2010-03-19T22:00:00Z,27.6346,-97.2370,0.0,22.2,11111222 
TCOON,ioos:station:TCOON:005:1,2010-03-19T23:00:00Z,27.6346,-97.2370,0.0,22.1,11111222 
TCOON,ioos:station:TCOON:005:1,2010-03-20T00:00:00Z,27.6346,-97.2370,0.0,22.1,11111222 
TCOON,ioos:station:TCOON:005:1,2010-03-20T01:00:00Z,27.6346,-97.2370,0.0,22.0,11111222 
TCOON,ioos:station:TCOON:005:1,2010-03-20T02:00:00Z,27.6346,-97.2370,0.0,21.9,11111222 
TCOON,ioos:station:TCOON:005:1,2010-03-20T03:00:00Z,27.6346,-97.2370,0.0,21.7,11111222 
TCOON,ioos:station:TCOON:005:1,2010-03-20T04:00:00Z,27.6346,-97.2370,0.0,21.7,11111222 
TCOON,ioos:station:TCOON:005:1,2010-03-20T05:00:00Z,27.6346,-97.2370,0.0,21.8,11111222 
TCOON,ioos:station:TCOON:005:1,2010-03-20T06:00:00Z,27.6346,-97.2370,0.0,21.7,11111222 
TCOON,ioos:station:TCOON:005:1,2010-03-20T07:00:00Z,27.6346,-97.2370,0.0,21.7,11111222 
TCOON,ioos:station:TCOON:005:1,2010-03-20T08:00:00Z,27.6346,-97.2370,0.0,21.6,11111222 
TCOON,ioos:station:TCOON:005:1,2010-03-20T09:00:00Z,27.6346,-97.2370,0.0,21.5,11111222 
TCOON,ioos:station:TCOON:005:1,2010-03-20T10:00:00Z,27.6346,-97.2370,0.0,21.4,11111222 
TCOON,ioos:station:TCOON:005:1,2010-03-20T11:00:00Z,27.6346,-97.2370,0.0,21.2,11111222 
TCOON,ioos:station:TCOON:005:1,2010-03-20T12:00:00Z,27.6346,-97.2370,0.0,21.0,11111222 
TCOON,ioos:station:TCOON:005:1,2010-03-20T13:00:00Z,27.6346,-97.2370,0.0,20.9,11111222 
TCOON,ioos:station:TCOON:005:1,2010-03-20T14:00:00Z,27.6346,-97.2370,0.0,20.9,11111222 
TCOON,ioos:station:TCOON:005:1,2010-03-20T15:00:00Z,27.6346,-97.2370,0.0,20.6,11111222 